星链-5915 (STARLINK-5915 )

导读

STARLINK-5915是美国SpaceX公司星链(Starlink)星座中的一颗第二代卫星,于2023年3月24日发射升空。星链项目旨在通过近地轨道大规模卫星组网,为全球提供高速低延迟的宽带互联网服务,尤其覆盖偏远地区、海洋等传统网络难以抵达的区域。截至2025年底,已有超9000颗星链卫星在轨运行,STARLINK-5915作为星座扩容的一部分,助力提升网络容量与覆盖稳定性,推动星链服务全球化部署,目前星链已在超150个国家提供服务,用户规模突破900万。

基本信息
目录编号:
55987
目录名称:
STARLINK-5915
国际标识:
2023-042B
轨道中心:
EARTH
卫星名称:
星链-5915
卫星全名:
星链-5915 (STARLINK-5915 )
卫星状态:
在轨 (已飞行1179 天)
发射日期:
2023-03-24 UTC
国别 :
美国 (US)
星等 :
--
轨道信息
数据来源 国际轨道数据
星历时间: 2026-06-14T19:44:46+0800
12小时前
查看轨道信息
半长轴: 6861.206km
偏心率: 0.0001542
轨道倾角: 42.997°
近地点辐角 268.697°
升交点赤经 232.941°
平近点角 91.371°
近地点: 482.011km
远地点: 484.127km
周期: 94.267分钟
每日圈数: 15.275736
详细信息
固有亮度:
5
最大亮度:
2.5
卫星平台:
Starlink v1.5
覆盖范围:
全球
运营商:
太空探索技术公司
运营商所在国:
美国
制造商(研发单位):
太空探索技术公司
制造商所在国:
美国
使用方式:
暂无
卫星简介
星链(Starlink)计划是由太空探索技术公司(SpaceX)提出的一个巨型低轨卫星互联网星座项目,计划在2019年至2024年间在太空搭建由约1.2万颗卫星组成的“星链”网络,其中1584颗将部署在地球上空550千米处的近地轨道,并从2020年开始工作。该卫星仍在工作。
2D轨道图
3D轨道图
轨道高度分析图
轨道倾角分析图
轨道综合分析图
查看轨道综合分析图